Regional Weather Roundup
Issued by NWS

Home | Current Version | Previous Version | Graphics & Text | Print | Product List | Glossary On
Versions: 1 2 3 4 5 6 7 8 9 10 11 12 13 14 15 16 17 18 19 20 21 22 23 24 25 26 27 28 29 30 31 32 33 34 35 36 37 38 39 40 41 42 43 44 45 46 47 48 49 50
000
ASUS43 KMKX 280521
RWRWI

WISCONSIN REGIONAL WEATHER ROUNDUP
NATIONAL WEATHER SERVICE MILWAUKEE/SULLIVAN WI
1100 PM CST FRI FEB 27 2015

NOTE: "FAIR" INDICATES FEW OR NO CLOUDS BELOW 12,000 FEET WITH NO
SIGNIFICANT WEATHER AND/OR OBSTRUCTIONS TO VISIBILITY.

WIZ001-002-006>008-014>016-023>028-280600-
NORTHWEST WISCONSIN

CITY           SKY/WX    TMP DP  RH WIND       PRES   REMARKS
SUPERIOR ARPT  CLEAR      7  -4  59 W7        30.47R WCI  -5
ASHLAND        CLEAR      4  -7  60 S5        30.46S WCI  -5
HAYWARD        CLEAR     -4 -11  72 SW5       30.46S WCI -15
SIREN          CLEAR      5  -3  69 SW6       30.50R WCI  -5
CUMBERLAND     CLEAR      1  -6  71 SW10      30.48R WCI -14
RICE LAKE      CLEAR      3  -4  71 S3        30.51S
CHETEK         CLEAR      1  -5  77 S3        30.51S
LADYSMITH      CLEAR      2  -3  77 S5        30.50S WCI  -7
EAU CLAIRE     CLEAR      1  -6  72 SW6       30.54S WCI -10
MENOMONIE      CLEAR      4  -3  71 S3        30.54F
NEW RICHMOND   CLEAR      2  -4  75 S6        30.51S WCI  -9
OSCEOLA        CLEAR      2  -4  75 S6        30.54S WCI  -9
$$

WIZ003>005-009-010-017-018-280600-
NORTH CENTRAL WISCONSIN

CITY           SKY/WX    TMP DP  RH WIND       PRES   REMARKS
MANITOWISH WTR CLEAR      0  -9  64 SW6       30.41S WCI -11
ARBOR VITAE    FAIR      -2 -10  69 CALM      30.42S
WOODRUFF       FAIR      -2 -10  69 CALM      30.42S
RHINELANDER    FAIR      -2 -10  69 W6        30.43S WCI -14
EAGLE RIVER    CLEAR      0 -11  62 CALM      30.41S
LAND O LAKES   CLEAR     -3 -11  68 CALM      30.41S
PHILLIPS       CLEAR      3  -4  73 SW5       30.44S WCI  -7
TOMAHAWK       CLEAR     -7 -11  81 CALM      30.46S
MEDFORD        CLEAR      1  -6  73 SW3       30.47S
MERRILL        CLEAR     -7 -12  79 CALM      30.48S
$$

WIZ029-030-035-036-043>047-280600-
CENTRAL WISCONSIN

CITY           SKY/WX    TMP DP  RH WIND       PRES   REMARKS
WAUSAU         FAIR       3  -6  66 VRB3      30.49S
MOSINEE        CLEAR      3  -6  66 W8        30.50F WCI -10
MARSHFIELD     CLEAR      2  -8  63 SW6       30.51S WCI  -9
STEVENS POINT  CLEAR      4  -8  57 SW3       30.53S
WAUPACA        CLEAR      6  -6  56 SW5       30.57S WCI  -3
WAUTOMA        CLEAR     -1 -10  65 CALM      30.58S
WISC RAPIDS    CLEAR     -1  -9  68 SW6       30.56S WCI -13
CAMP DOUGLAS   CLEAR      2  -7  66 SW7       30.57S WCI -11
$$

WIZ011>013-019>022-031-037>040-048>050-280600-
NORTHEAST WISCONSIN

CITY           SKY/WX    TMP DP  RH WIND       PRES   REMARKS
ANTIGO         CLEAR     -1  -7  74 W5        30.46R WCI -11
SHAWANO        CLEAR      8  -5  57 CALM      30.54S
OCONTO         CLEAR      6  -6  57 SW5       30.54F WCI  -3
STURGEON BAY   CLEAR      9  -4  56 SW7       30.55S WCI  -3
GREEN BAY      CLEAR     10  -4  53 SW7       30.56S WCI  -1
MANITOWOC      CLEAR      8  -1  66 SW10      30.58S WCI  -6
APPLETON       CLEAR      9  -6  52 SW7       30.55S WCI  -3
CLINTONVILLE   CLEAR      9  -6  52 SW3       30.54S
OSHKOSH        CLEAR      6  -4  63 SW8       30.57S WCI  -7
$$

WIZ032>034-041-042-053>061-280600-
SOUTHWEST WISCONSIN

CITY           SKY/WX    TMP DP  RH WIND       PRES   REMARKS
LA CROSSE      CLEAR      2  -7  66 S7        30.62S WCI -11
SPARTA         CLEAR     -8 -13  78 CALM      30.60S
VIROQUA        CLEAR     -2  -8  78 SW5       30.55S WCI -12
BOSCOBEL       PTCLDY    -4 -10  75 CALM      30.64S
PRAIRIE DU CHI PTCLDY    -6 -13  74 CALM      30.64S
PLATTEVILLE    MOCLDY    -1  -7  77 S5        30.61S WCI -12
$$

WIZ056-057-062-063-064-067-068-280600-
SOUTH CENTRAL WISCONSIN

CITY           SKY/WX    TMP DP  RH WIND       PRES   REMARKS
REEDSBURG      CLEAR      4  -6  63 SW3       30.59R
BARABOO/DELLS  CLEAR      2  -7  65 SW6       30.58S WCI  -9
LONE ROCK      CLEAR     -4 -11  72 CALM      30.64R
MINERAL POINT  PTCLDY     3  -6  66 SW5       30.58S WCI  -6
MADISON        CLEAR      3  -7  63 CALM      30.60S
MIDDLETON      CLEAR      2  -8  61 W3        30.60S
WATERTOWN      CLEAR      2  -6  70 SW3       30.60S
MONROE         MOCLDY     3  -4  72 W10       30.59S WCI -12
JANESVILLE     PTCLDY     3  -6  66 SW3       30.63S
$$

WIZ051-052-058>065-066-070>072-280600-
SOUTHEAST WISCONSIN

CITY           SKY/WX    TMP DP  RH WIND       PRES   REMARKS
MILWAUKEE      CLEAR      6  -7  54 W7        30.62F WCI  -6
WAUKESHA       CLEAR      3  -6  66 SW3       30.61F
MILWAUKEE/TIMM CLEAR      7  -6  56 W9        30.61F WCI  -7
RACINE         CLEAR      3  -7  63 SW7       30.65S WCI  -9
BURLINGTON     CLEAR     -6 -10  84 S5        30.62S WCI -17
KENOSHA        CLEAR     -6 -12  75 W6        30.63S WCI -19
FOND DU LAC    CLEAR      6  -5  60 SW7       30.58S WCI  -6
SHEBOYGAN      CLEAR      5  -5  63 W9        30.58S WCI  -9
WEST BEND      CLEAR      7  -6  56 SW6       30.59S WCI  -3
JUNEAU         CLEAR      1  -6  71 S7        30.60S WCI -11
$$

LSZ147-162-280600-
LAKE SUPERIOR

STATION/POSITION TIME  TEMP    WIND        PRES    WAVE
                       AIR SEA DIR/SP/G            HT/PER
                 (UTC) (F)     (DEG/KT/KT) (MB)    (FT/S)
DEVILS ISLAND    0500   13     230/ 15/ 19 1032.2R
PORT WING        0400   12     190/  9/ 13 1031.2S
SAXON HARBOR     0400   10     190/  2/ 10 1031.5S
$$

LMZ867-665-643>646-280600-
LAKE MICHIGAN

STATION/POSITION TIME  TEMP    WIND        PRES    WAVE
                       AIR SEA DIR/SP/G            HT/PER
                 (UTC) (F)     (DEG/KT/KT) (MB)    (FT/S)
NORTHPORT PIER   0400   12     240/  6/ 10 1033.2R
SISTER BAY       0243   13     250/ 12/ 15   N/A
KEWAUNEE LAKESHO 0412   10     250/  5/  8 1033.8R
SHEBOYGAN LAKESH 0500    9     240/ 11/ 13 1037.8S
PORT WASHINGTON  0400    9     260/ 10/ 13 1036.9
MILWAUKEE LAKESH 0500   10     260/ 10/ 14   N/A
KENOSHA   LAKESH 0500    5     250/  8/ 10 1037.3F
$$

TC  - TEMPERATURE IN CELSIUS
VSB - VISIBILITY IN STATUTE MILES
WCI - WIND CHILL INDEX
HX  - HEAT INDEX




USA.gov is the U.S. government's official web portal to all federal, state and local government web resources and services.